User: anonymous   Login
Location: Unspecified
(0.0000°N, 0.0000°E)
Time: 14:49:55
(UTC+00:00)
Language:

FALCONSAT 3 - Orbit

View from above orbital plane
View from above orbital plane
View from above satellite
View from above satellite

Ground track
Ground track

The orbit data is extracted from the following two-line orbital elements,

1 30776U 07006E   17206.21292437 +.00002017 +00000-0 +64499-4 0  9998
2 30776 035.4345 185.3510 0003751 295.0009 065.0327 15.32439895574090
Epoch (UTC): 25 July 2017 05:06:36
Eccentricity: 0.0003751
inclination: 35.4345°
perigee height: 466 km
apogee height: 471 km
right ascension of ascending node: 185.3510°
argument of perigee: 295.0009°
revolutions per day: 15.32439895
mean anomaly at epoch: 65.0327°
orbit number at epoch: 57409

The dashed part of the orbit path shows where the satellite is in the earth's shadow,  

DLR